Location: Unspecified
(58.7730°N, 5.8460°E)
Time: 14:30:16
(UTC+02:00)

CZ-3 Stage 3 - Visible Passes

Search period start: 17 April 2014 00:00
Search period end: 27 April 2014 00:00
Orbit: 477 x 34779 km, 30.6° (Epoch: 16 April)

Date Brightness Start Highest point End Pass type
(mag) Time Alt. Az. Time Alt. Az. Time Alt. Az.
19 Apr 6.1 03:44:51 13° S 03:49:43 15° S 04:07:04 10° SE visible
22 Apr 6.1 03:43:48 13° S 03:48:52 15° S 04:05:20 10° SSE visible
25 Apr 6.2 03:42:46 12° SSW 03:48:01 14° S 04:03:19 10° SSE visible
